Tracking 30995 objects as of 7-Jul-2025
HD Live streaming from Space Station
objects crossing your sky now

COSMOS 970 DEB

Track COSMOS 970 DEB now!
10-day predictions


NORAD ID: 10882
Int'l Code: 1977-121AD
Perigee: 874.8 km
Apogee: 1,087.4 km
Inclination: 65.8 °
Period: 104.6 minutes
Semi major axis: 7352 km
RCS: 0.0585 m2 (small)
Launch date: December 21, 1977
Source: Commonwealth of Independent States (former USSR) (CIS)
Launch site: TYURATAM MISSILE AND SPACE COMPLEX (TTMTR)

Note: This is SATELLITE DEBRIS
Your satellite tracking list
Your tracking list is empty




NASA's NSSDC Master Catalog

Two Line Element Set (TLE):
1 10882U 77121AD  25187.40648858  .00000286  00000-0  34337-3 0  9992
2 10882  65.8225 170.0371 0144586 291.1313  67.4348 13.77152068378770
Source of the keplerian elements: AFSPC